This is the latest recevied weather packets stored in our database for station/object SV9TNF-57. If no packets are shown the sender has not sent any weather packets the latest 10 day(s).
| Time | Temp. | Humidity | Pressure | Rain* | Wind** | Luminosity | Snow |
|---|---|---|---|---|---|---|---|
| 1788172365 | 30.56° C | 39% | 995.8 hPa | 0 mm | 3.13 m/s, 85° | - | - |
| 1788172065 | 30.56° C | 40% | 995.9 hPa | 0 mm | 5.36 m/s, 271° | - | - |
| 1788171765 | 30.56° C | 40% | 995.8 hPa | 0 mm | 6.26 m/s, 349° | - | - |
| 1788171464 | 30.56° C | 41% | 996.1 hPa | 0 mm | 2.24 m/s, 348° | - | - |
| 1788171165 | 30.56° C | 41% | 995.8 hPa | 0 mm | 1.79 m/s, 133° | - | - |
| 1788170865 | 30.56° C | 40% | 995.6 hPa | 0 mm | 8.49 m/s, 187° | - | - |
| 1788170564 | 30.56° C | 41% | 995.9 hPa | 0 mm | 8.49 m/s, 16° | - | - |
| 1788170264 | 30.56° C | 41% | 995.8 hPa | 0 mm | 0.45 m/s, 24° | - | - |
| 1788169964 | 30.56° C | 40% | 996.1 hPa | 0 mm | 6.71 m/s, 310° | - | - |
| 1788169664 | 30.56° C | 40% | 996.1 hPa | 0 mm | 11.62 m/s, 259° | - | - |
| 1788169364 | 30.56° C | 40% | 996.1 hPa | 0 mm | 8.49 m/s, 292° | - | - |
| 1788169064 | 30° C | 41% | 996 hPa | 0 mm | 16.99 m/s, 5° | - | - |
| 1788168764 | 30° C | 41% | 996.4 hPa | 0 mm | 2.68 m/s, 359° | - | - |
| 1788168464 | 30° C | 42% | 996.1 hPa | 0 mm | 9.39 m/s, 30° | - | - |
| 1788168163 | 30° C | 43% | 996.1 hPa | 0 mm | 9.83 m/s, 341° | - | - |
| 1788167863 | 30° C | 43% | 996.3 hPa | 0 mm | 9.39 m/s, 270° | - | - |
| 1788167563 | 29.44° C | 47% | 996.3 hPa | 0 mm | 3.13 m/s, 339° | - | - |
| 1788167263 | 30° C | 48% | 996.3 hPa | 0 mm | 4.47 m/s, 295° | - | - |
| 1788166963 | 29.44° C | 50% | 996.3 hPa | 0 mm | 5.36 m/s, 296° | - | - |
| 1788166663 | 29.44° C | 51% | 996.1 hPa | 0 mm | 4.92 m/s, 326° | - | - |
| 1788166363 | 29.44° C | 52% | 996.2 hPa | 0 mm | 6.71 m/s, 323° | - | - |
| 1788166063 | 29.44° C | 52% | 996.4 hPa | 0 mm | 2.24 m/s, 283° | - | - |
| 1788165763 | 29.44° C | 51% | 996.2 hPa | 0 mm | 4.47 m/s, 100° | - | - |
| 1788165463 | 29.44° C | 50% | 996.4 hPa | 0 mm | 10.28 m/s, 49° | - | - |
| 1788165162 | 28.89° C | 51% | 996.4 hPa | 0 mm | 2.68 m/s, 158° | - | - |
* Rain latest hour (hover to see other rain measurements)
** Current wind speed in m/s (hover to see current wind gust speed)